Location: Aufkirchen
(47.9603°N, 11.3653°E)
Time: 10:19:04
(UTC+01:00)

deb Explorer IX - Pass Details

Date: 01 December 2020
Orbit: 536 x 1104 km, 38.8° (Epoch: 19 January)

Event Time Altitude Azimuth Distance (km) Brightness Sun altitude
Rises 20:16:04 0° 264° (W) 3,281 ? -38.1°
Reaches altitude 10° 20:19:35 10° 244° (WSW) 2,220 ? -38.6°
Enters shadow 20:20:15 12° 237° (WSW) 2,063 ? -38.7°
